Flag for Germany Weather past 2 weeks in Paderborn, North Rhine-Westphalia, Germany

Now
59 °F

Clear.


Feels Like: 60 °F
Forecast: 64 / 78 °F
Wind: 3 mph from South

Location: Paderborn / Lippstadt

Current Time: Jul 28, 2014 at 6:30:33 AM

Latest Report: Jul 28, 2014 at 5:50 AM


Visibility: 10 mi

Pressure: 29.95 "Hg

Humidity: 94%

Dew point: 57 °F

Location of PaderbornLocation

Historic Weather in Paderborn — Graph

°F

Paderborn temperature yesterday

Maximum temperature yesterday: 75 °F (at 4:20 PM)
Minimum temperature yesterday: 59 °F (at 4:50 AM)
Average temperature yesterday: 69 °F

Past Weeks' High & Low Weather Summary

 TemperatureHumidityPressure
High88 °F (Jul 19, 1:50 PM)100% (Jul 14, 4:20 AM)30.21 "Hg (Jul 14, 4:20 AM)
Low54 °F (Jul 15, 3:20 AM)27% (Jul 19, 1:20 PM)29.74 "Hg (Jul 13, 3:20 PM)
Average68 °F70%30.00 "Hg
* Reported Jul 13 5:20 AM — Jul 28 5:20 AM, Paderborn, Weather by CustomWeather, © 2014

Note: Actual official high and low records may vary slightly from our data, if they occured in-between our weather recording intervals... More about our weather records

Advertising

Paderborn weather history for previous 24 hours

 ConditionsComfort  
Time TempWeatherWind HumidityBarometerVisibility
5:20 AM
Jul 28
59 °FClear.2 mph94%29.95 "Hg10 mi
4:20 AM61 °FClear.2 mph94%29.95 "Hg10 mi
11:50 PM
Jul 27
63 °FClear.3 mph88%30.01 "Hg10 mi
11:20 PM64 °FClear.1 mph83%30.01 "Hg10 mi
10:50 PM64 °FClear.2 mph83%30.01 "Hg10 mi
10:20 PM66 °FSunny.1 mph78%30.01 "Hg10 mi
9:50 PM66 °FSunny.1 mph78%30.01 "Hg10 mi
9:20 PM68 °FSunny.1 mph73%30.01 "Hg10 mi
8:50 PM70 °FSunny.1 mph69%30.01 "Hg10 mi
8:20 PM73 °FSunny.2 mph61%30.01 "Hg10 mi
7:50 PM73 °FPassing clouds.3 mph61%29.98 "HgN/A
7:20 PM72 °FPassing clouds.5 mph61%29.98 "HgN/A
6:50 PM73 °FPassing clouds.6 mph57%29.98 "HgN/A
6:20 PM75 °FPassing clouds.6 mph54%29.98 "HgN/A
5:50 PM73 °FPassing clouds.7 mph53%29.98 "HgN/A
5:20 PM75 °FPassing clouds.8 mph47%29.98 "HgN/A
4:50 PM73 °FScattered clouds.10 mph57%29.98 "Hg5 mi
4:20 PM75 °FScattered clouds.9 mph57%29.98 "Hg5 mi
3:50 PM73 °FScattered clouds.9 mph61%30.01 "Hg5 mi
3:20 PM73 °FScattered clouds.9 mph61%30.01 "Hg5 mi
2:50 PM73 °FScattered clouds.9 mph65%30.01 "Hg5 mi
2:20 PM72 °FScattered clouds.9 mph65%30.01 "Hg5 mi
1:50 PM73 °FScattered clouds.9 mph61%30.01 "Hg5 mi
1:20 PM73 °FScattered clouds.8 mph61%30.01 "Hg5 mi
12:50 PM72 °FScattered clouds.9 mph65%30.01 "Hg5 mi
12:20 PM72 °FScattered clouds.9 mph65%30.01 "Hg5 mi
11:50 AM72 °FScattered clouds.8 mph65%30.01 "Hg5 mi
11:20 AM70 °FScattered clouds.7 mph78%30.01 "Hg4 mi
10:50 AM72 °FScattered clouds.7 mph73%30.01 "Hg4 mi
10:20 AM70 °FScattered clouds.7 mph73%30.01 "Hg4 mi
9:50 AM70 °FClear.6 mph73%30.01 "Hg5 mi
9:20 AM68 °FClear.6 mph73%30.01 "Hg5 mi
8:50 AM66 °FClear.5 mph78%30.01 "Hg5 mi
8:20 AM66 °FClear.5 mph73%30.01 "Hg6 mi
7:50 AM64 °FClear.2 mph83%30.01 "Hg6 mi
7:20 AM63 °FClear.2 mph88%30.01 "Hg6 mi
6:50 AM61 °FClear.1 mph94%30.01 "Hg5 mi
6:20 AM59 °FClear.1 mph94%29.98 "Hg5 mi
Weather by CustomWeather, © 2014

See weather overviewHow to use our weather pages